Date,TemperatureHighF,TemperatureAvgF,TemperatureLowF,DewpointHighF,DewpointAvgF,DewpointLowF,HumidityHigh,HumidityAvg,HumidityLow,PressureMaxIn,PressureMinIn,WindSpeedMaxMPH,WindSpeedAvgMPH,GustSpeedMaxMPH,PrecipitationSumIn
2012-1-1,30.6,23.9,17.8,21.3,9.1,1.4,68,53,43,16.90,16.90,33,14,35,0.00
2012-1-2,19.6,13.8,7.7,4.7,-2.2,-8.8,56,48,43,16.90,16.90,28,7,28,0.00
2012-1-3,27.3,16.9,7.9,19.7,2.8,-8.6,82,54,44,16.90,16.90,17,5,19,0.00
2012-1-4,39.2,27.8,21.2,21.9,18.0,14.2,81,67,43,16.90,16.90,10,3,12,0.00
2012-1-5,52.0,35.7,19.2,30.2,22.4,14.4,87,62,37,16.90,16.90,17,4,17,0.00
2012-1-6,45.7,39.0,31.5,24.4,21.3,15.9,63,49,38,16.90,16.90,27,9,27,0.00
2012-1-7,39.2,28.3,19.9,19.0,15.2,9.6,77,58,43,16.90,16.90,21,4,22,0.00
2012-1-8,40.6,27.6,12.6,25.5,16.5,7.6,82,65,40,16.90,16.90,15,4,15,0.00
2012-1-9,48.0,35.9,23.7,23.6,18.0,12.2,77,49,38,16.90,16.90,21,6,23,0.00
2012-1-10,52.2,33.9,22.3,26.4,21.7,16.8,86,64,36,16.90,16.90,13,3,13,0.00
2012-1-11,39.4,23.9,9.1,34.6,13.7,-5.3,95,66,49,16.90,16.90,24,9,26,0.00
2012-1-12,13.6,9.4,7.0,-1.1,-5.1,-7.3,51,51,51,16.90,16.90,22,10,22,0.00
2012-1-13,9.7,9.1,8.2,-6.5,-7.0,-7.8,47,47,47,27.91,27.91,5,2,5,0.00
2012-1-14,22.6,16.6,6.3,15.3,3.7,-9.6,74,57,47,30.06,27.89,9,4,10,0.00
2012-1-15,36.7,27.1,21.2,21.3,17.9,14.1,86,69,50,30.06,29.67,17,6,20,0.00
2012-1-16,28.4,21.4,13.5,21.6,7.4,-0.6,77,55,43,30.03,29.70,19,7,19,0.00
2012-1-17,13.5,5.2,-6.3,-0.5,-8.2,-19.0,53,53,53,30.24,30.03,17,7,20,0.00
2012-1-18,25.7,4.9,-11.6,13.9,-8.2,-22.2,73,54,44,30.18,29.65,26,8,26,0.00
2012-1-19,2.3,-9.8,-19.7,-9.2,-20.5,-29.9,58,58,58,30.15,29.97,17,5,17,0.00
2012-1-20,17.2,2.9,-13.5,1.8,-10.8,-24.1,58,52,44,30.21,30.06,8,2,8,0.00
2012-1-21,21.6,6.8,-10.8,14.9,-6.4,-25.9,77,54,46,30.21,29.70,22,6,22,0.00
2012-1-22,25.2,23.6,21.6,21.9,17.8,14.1,89,79,71,29.70,29.53,13,6,15,0.00
2012-1-23,26.2,22.4,17.1,20.3,14.3,7.7,86,71,57,29.91,29.53,20,8,20,0.00
2012-1-24,32.4,20.3,8.6,17.0,9.4,0.8,78,63,44,30.24,29.91,10,4,11,0.00
2012-1-25,36.1,28.0,23.2,26.0,20.8,17.0,86,75,52,30.21,29.76,14,6,16,0.00
2012-1-26,41.2,29.3,16.2,27.8,18.7,6.6,89,66,44,29.79,29.67,22,5,23,0.00
2012-1-27,35.8,24.6,12.9,30.5,14.0,5.0,85,65,44,29.91,29.65,25,6,25,0.00
2012-1-28,28.8,21.0,12.9,13.0,7.5,3.2,73,56,42,29.97,29.88,18,7,22,0.00
2012-1-29,18.1,13.0,4.1,7.3,0.1,-5.9,66,56,44,30.15,29.91,13,5,13,0.00
2012-1-30,40.3,27.2,17.1,21.2,14.3,5.1,72,59,43,29.91,29.59,17,5,17,0.00
2012-1-31,44.6,30.7,19.8,29.5,22.2,14.6,85,71,51,29.97,29.56,17,5,17,0.00
2012-2-1,38.1,33.7,30.6,33.1,29.0,24.8,93,83,63,30.09,29.97,9,4,10,0.00
2012-2-2,37.4,32.5,27.9,33.3,29.3,25.0,98,88,64,30.38,30.09,0,0,0,0.00
2012-2-3,34.5,32.2,28.2,33.3,29.1,24.5,98,89,72,30.47,30.38,0,0,0,0.00
2012-2-4,38.8,30.0,24.6,25.7,23.8,21.7,91,78,54,30.44,30.29,13,2,13,0.00
2012-2-5,34.5,28.3,23.5,23.8,21.8,19.0,90,77,59,30.32,30.12,11,5,11,0.00
2012-2-6,42.3,29.5,18.0,27.4,18.5,13.1,89,66,40,30.32,30.03,23,5,23,0.00
2012-2-7,29.1,17.7,4.5,14.3,-0.3,-15.5,55,45,33,30.56,30.32,20,6,20,0.00
2012-2-8,31.1,14.6,1.2,5.4,-5.8,-18.5,50,39,32,30.47,30.18,13,3,16,0.00
2012-2-9,39.0,23.3,8.2,17.5,5.9,-7.8,70,47,39,30.18,29.85,21,6,25,0.00
2012-2-10,16.9,5.5,-2.2,-1.4,-11.3,-18.3,45,45,44,30.53,30.03,22,10,25,0.00
2012-2-11,17.4,6.1,-3.1,-3.8,-13.2,-19.1,45,40,34,30.59,30.44,19,8,21,0.00
2012-2-12,30.0,14.0,0.0,3.1,-8.8,-21.2,44,35,25,30.44,30.00,13,4,15,0.00
2012-2-13,37.8,26.6,17.2,17.3,9.0,-2.4,66,47,39,30.00,29.70,12,4,13,0.00
2012-2-14,37.9,28.5,18.7,22.6,17.9,12.2,82,65,44,29.76,29.67,11,4,11,0.00
2012-2-15,45.1,31.8,19.2,26.1,21.6,14.6,83,67,38,30.00,29.76,13,3,13,0.00
2012-2-16,38.7,28.9,20.1,22.1,15.6,9.3,83,59,38,30.06,30.00,17,5,19,0.00
2012-2-17,37.2,28.5,19.2,18.5,11.6,3.3,76,49,40,30.15,29.91,17,6,17,0.00
2012-2-18,36.1,22.2,9.0,14.2,7.3,-1.1,74,53,40,30.21,30.12,12,3,12,0.00
2012-2-19,43.0,28.8,12.9,19.1,13.7,5.8,80,55,35,30.12,29.97,17,5,17,0.00
2012-2-20,43.3,33.6,26.1,32.8,20.9,15.1,94,62,38,30.03,29.59,22,8,22,0.00
2012-2-21,37.6,32.0,22.3,33.6,24.4,13.7,95,74,56,29.59,29.47,0,0,0,0.00
2012-2-22,38.7,26.7,14.2,20.2,14.9,8.9,81,62,41,29.53,29.41,6,0,8,0.00
2012-2-23,38.1,29.1,20.1,20.9,16.7,13.2,82,61,43,29.70,29.41,11,2,11,0.00
2012-2-24,29.5,21.6,10.0,22.3,5.9,-5.5,76,51,41,30.06,29.70,21,8,23,0.00
2012-2-25,28.9,16.4,3.9,8.9,0.2,-11.0,54,48,42,30.21,30.00,13,5,15,0.00
2012-2-26,36.1,27.9,23.9,21.6,14.4,8.9,73,57,46,30.00,29.59,26,10,30,0.00
2012-2-27,29.8,22.8,16.3,17.1,7.9,3.4,69,53,41,30.38,29.97,19,6,21,0.00
2012-2-28,41.5,29.1,17.8,30.0,19.9,7.7,95,69,46,30.29,29.65,19,8,22,0.00
2012-2-29,36.7,33.1,30.6,34.5,26.4,21.1,98,78,56,29.73,29.32,26,11,26,0.00
2012-3-1,46.9,35.0,28.2,29.5,24.4,20.9,86,67,40,29.79,29.70,11,3,11,0.00
2012-3-2,37.4,30.4,22.1,29.4,19.7,12.4,89,66,40,29.70,29.59,17,6,19,0.00
2012-3-3,28.4,19.4,6.3,13.5,5.0,-7.8,71,54,43,29.85,29.59,18,8,20,0.00
2012-3-4,30.0,12.7,-4.0,8.9,-2.3,-17.2,61,51,40,30.09,29.85,11,2,11,0.00
2012-3-5,37.6,21.9,2.1,23.9,9.8,-8.2,78,60,42,30.15,29.79,17,5,19,0.00
2012-3-6,50.2,36.0,24.4,31.1,24.5,18.9,82,65,40,29.79,29.53,13,5,13,0.00
2012-3-7,41.7,33.1,19.9,37.7,22.0,8.3,89,65,45,30.00,29.53,20,7,20,0.00
2012-3-8,37.9,25.6,15.8,19.7,10.1,-4.6,75,53,35,30.38,30.00,28,9,32,0.00
2012-3-9,34.7,22.5,7.0,12.9,2.9,-10.8,52,42,34,30.56,30.06,14,6,15,0.00
2012-3-10,55.2,41.6,28.6,30.4,23.6,12.3,71,50,34,30.06,29.85,20,6,20,0.00
2012-3-11,60.8,46.9,34.0,38.7,28.3,21.0,69,49,36,29.91,29.76,17,6,18,0.00
2012-3-12,54.9,46.4,36.9,45.7,39.0,21.8,91,76,48,29.85,29.62,17,5,22,0.00
2012-3-13,59.2,44.0,29.7,37.4,29.6,22.2,90,61,31,30.03,29.79,15,5,15,0.00
2012-3-14,68.0,52.6,41.9,46.7,31.1,12.9,89,50,23,29.94,29.67,19,5,19,0.00
2012-3-15,63.3,46.1,30.7,28.6,20.3,12.1,56,36,26,30.06,29.94,15,3,15,0.00
2012-3-16,73.9,52.5,31.8,50.2,32.9,14.3,74,48,32,29.97,29.76,13,4,15,0.00
2012-3-17,73.4,61.7,52.2,60.5,52.1,48.4,96,73,46,29.76,29.70,20,6,21,0.00
2012-3-18,73.0,65.2,59.0,58.3,51.8,47.5,91,63,43,29.73,29.62,20,8,22,0.00
2012-3-19,76.1,65.3,59.2,60.8,53.5,46.3,97,69,37,29.70,29.56,27,9,35,0.00
2012-3-20,64.9,57.9,49.3,61.5,49.9,39.2,98,77,50,29.94,29.67,13,4,13,0.00
2012-3-21,63.0,54.2,48.9,55.8,48.3,42.4,97,82,49,30.09,29.88,8,1,11,0.00
2012-3-22,62.4,57.3,50.5,57.1,53.5,47.7,95,87,73,30.09,29.97,13,5,13,0.00
2012-3-23,63.9,58.5,53.8,58.2,55.1,51.0,98,89,68,29.97,29.88,9,2,9,0.00
2012-3-24,68.4,56.8,42.4,55.6,48.4,31.6,98,76,44,30.12,29.91,15,2,19,0.00
2012-3-25,54.7,42.4,33.8,31.6,24.8,19.4,77,52,30,30.24,30.12,17,8,21,0.00
2012-3-26,45.1,39.4,33.6,24.2,21.2,17.5,67,48,37,30.27,29.85,31,13,31,0.00
2012-3-27,66.4,50.9,40.5,40.2,32.8,23.5,65,51,34,29.85,29.50,31,13,32,0.00
2012-3-28,54.1,43.8,35.8,30.6,26.9,24.6,72,52,37,30.06,29.79,22,6,24,0.00
2012-3-29,55.9,45.6,36.5,38.2,29.2,23.7,72,54,37,30.09,29.79,20,8,23,0.00
2012-3-30,61.9,49.6,42.1,40.0,37.9,35.4,83,66,42,29.85,29.76,13,5,13,0.00
2012-3-31,53.2,47.4,41.4,46.6,42.3,38.4,95,83,68,29.85,29.73,14,6,14,0.00
2012-4-1,64.2,54.6,46.8,47.0,39.4,30.2,96,61,33,29.73,29.59,24,8,26,0.00
2012-4-2,67.6,56.7,47.7,37.7,32.6,27.3,52,40,33,29.88,29.62,20,10,23,0.00
2012-4-3,60.8,51.1,39.9,43.9,29.1,18.4,88,46,24,30.12,29.88,25,8,26,0.00
2012-4-4,60.3,47.6,32.5,29.3,22.2,16.6,61,38,25,30.12,29.94,15,4,16,0.00
2012-4-5,57.7,47.0,35.4,29.2,22.5,16.0,54,38,28,30.18,30.00,17,7,17,0.00
2012-4-6,61.9,46.1,29.3,29.9,22.3,14.3,57,40,26,30.24,30.03,20,6,20,0.00
2012-4-7,59.2,49.9,40.6,46.6,26.6,13.6,83,41,30,30.15,29.97,30,8,30,0.00
2012-4-8,62.2,46.5,31.6,26.0,17.6,10.4,49,32,19,30.18,30.03,26,8,28,0.00
2012-4-9,44.2,37.3,26.2,16.2,12.7,7.3,45,36,31,30.18,30.06,25,9,26,0.00
2012-4-10,42.3,31.6,22.3,13.5,10.1,6.4,56,41,30,30.29,30.15,17,6,21,0.00
2012-4-11,52.0,35.1,19.6,22.0,14.2,5.7,59,43,28,30.38,30.21,10,3,11,0.00
2012-4-12,63.9,45.2,22.8,27.0,21.1,15.2,75,43,24,30.21,29.97,13,4,13,0.00
2012-4-13,54.5,52.1,49.5,53.4,35.1,21.3,96,57,28,30.00,29.65,28,10,28,0.00
2012-4-14,73.2,58.7,43.9,53.2,39.2,27.3,96,56,23,29.79,29.62,17,5,20,0.00
2012-4-15,59.2,50.9,44.8,52.2,46.9,38.8,96,87,49,29.62,29.29,28,11,32,0.00
2012-4-16,44.8,36.7,28.8,39.2,26.0,19.2,95,67,41,30.18,29.35,28,9,32,0.00
2012-4-17,61.0,44.2,25.9,41.4,29.4,19.0,85,59,36,30.27,29.91,15,4,17,0.00
2012-4-18,59.9,51.3,41.5,50.8,39.8,27.5,97,68,40,30.03,29.73,21,7,22,0.00
2012-4-19,50.2,44.4,38.8,32.6,24.6,17.4,67,46,30,30.06,29.97,24,7,24,0.00
2012-4-20,59.4,44.0,28.2,27.3,21.6,16.7,67,43,28,30.12,30.00,15,4,15,0.00
2012-4-21,48.6,46.6,44.6,42.6,40.3,36.2,88,79,62,29.91,29.85,13,7,17,0.00
2012-4-22,54.9,46.2,34.3,34.2,31.2,28.2,82,57,43,30.24,30.21,11,4,12,0.00
2012-4-23,68.0,49.8,31.1,41.7,32.4,27.4,93,57,27,30.21,29.85,11,2,11,0.00
2012-4-24,72.0,58.0,46.8,39.4,35.1,31.6,63,44,26,29.85,29.59,8,3,8,0.00
2012-4-25,73.0,60.1,48.7,42.6,38.3,32.3,72,45,32,29.82,29.53,15,7,15,0.00
2012-4-26,57.4,47.2,37.9,37.2,25.6,19.2,69,44,27,30.15,29.82,23,7,23,0.00
2012-4-27,58.8,48.9,38.1,26.4,22.3,18.0,50,36,26,30.18,30.00,24,8,25,0.00
2012-4-28,49.5,45.9,42.8,34.2,26.4,19.6,63,47,37,30.21,30.00,21,8,22,0.00
2012-4-29,66.9,53.2,41.2,41.9,36.6,33.4,84,56,34,30.21,30.00,12,4,14,0.00
2012-4-30,70.5,57.2,48.7,43.3,38.6,32.2,75,52,32,30.00,29.79,17,4,17,0.00
2012-5-1,74.7,59.6,50.7,60.8,53.8,43.4,98,83,45,29.79,29.53,19,6,23,0.00
2012-5-2,80.6,67.0,56.8,59.0,49.9,38.7,95,60,23,29.76,29.56,13,4,14,0.00
2012-5-3,75.6,63.3,54.0,57.9,50.3,43.5,96,66,34,29.97,29.70,24,4,25,0.00
2012-5-4,66.4,55.3,48.6,51.6,45.0,39.0,90,69,45,30.03,29.91,21,8,21,0.00
2012-5-5,61.3,53.4,48.0,52.2,46.6,38.2,96,78,64,30.03,29.91,16,6,17,0.00
2012-5-6,70.9,58.9,50.5,59.3,53.1,47.4,98,83,49,30.03,29.82,26,5,26,0.00
2012-5-7,66.0,54.3,44.6,48.0,38.7,31.1,95,60,33,30.00,29.88,25,6,25,0.00
2012-5-8,63.9,53.7,45.5,48.3,41.3,36.0,90,64,38,30.00,29.85,16,5,17,0.00
2012-5-9,66.2,54.3,41.2,43.0,36.1,28.8,85,54,28,30.09,29.94,10,2,11,0.00
2012-5-10,73.4,58.7,40.3,44.7,38.9,35.2,88,52,32,29.94,29.79,15,4,15,0.00
2012-5-11,66.2,57.8,45.5,48.3,37.8,28.9,74,48,31,30.24,29.73,22,6,23,0.00
2012-5-12,69.3,53.6,35.2,38.1,29.5,20.4,83,46,18,30.35,30.24,15,2,19,0.00
2012-5-13,75.6,58.7,38.1,38.2,31.6,27.4,79,42,18,30.27,30.00,20,5,20,0.00
2012-5-14,87.6,68.8,52.5,43.9,36.5,29.2,52,33,13,30.00,29.79,17,5,17,0.00
2012-5-15,70.9,61.7,47.3,37.5,31.7,25.1,53,33,23,30.09,29.79,19,7,23,0.00
2012-5-16,71.1,55.3,37.8,36.3,30.7,27.0,74,42,23,30.18,30.00,10,2,10,0.00
2012-5-17,86.9,69.1,52.2,48.1,40.2,31.0,48,36,23,30.00,29.65,22,6,25,0.00
2012-5-18,94.5,73.3,64.4,60.6,48.8,40.8,81,46,19,29.76,29.65,27,7,29,0.00
2012-5-19,88.3,70.2,56.1,56.4,52.0,45.6,83,55,31,29.94,29.70,20,6,24,0.00
2012-5-20,64.8,55.5,46.2,55.4,45.7,33.0,96,74,34,30.18,29.85,23,6,23,0.00
2012-5-21,77.0,60.7,41.7,51.2,41.6,37.0,92,55,27,30.24,30.03,11,2,14,0.00
2012-5-22,86.4,71.1,58.8,48.0,41.5,34.2,50,35,23,30.03,29.62,23,6,24,0.00
2012-5-23,77.7,66.8,60.3,60.5,48.9,38.3,97,56,31,29.65,29.44,22,5,22,0.00
2012-5-24,62.1,59.4,54.3,61.3,56.2,46.2,98,90,58,29.70,29.47,15,4,17,0.00
2012-5-25,71.8,59.1,47.3,53.2,41.1,31.1,91,54,33,30.12,29.70,11,4,12,0.00
2012-5-26,63.5,57.5,52.5,59.2,50.7,42.8,95,78,64,30.24,29.88,33,6,34,0.00
2012-5-27,88.7,71.5,57.0,66.6,60.6,55.3,98,72,40,29.88,29.56,29,7,40,0.00
2012-5-28,81.0,66.4,55.0,66.4,52.5,35.2,97,66,33,29.76,29.59,25,6,25,0.00
2012-5-29,65.7,55.8,48.6,41.6,36.3,32.0,68,49,35,29.97,29.70,23,8,25,0.00
2012-5-30,60.6,51.9,43.7,39.6,36.7,33.4,82,58,37,30.03,29.97,9,4,11,0.00
2012-6-7,88.2,79.5,68.5,58.7,55.6,51.5,67,45,31,30.06,29.94,15,4,15,0.00
2012-6-8,90.1,77.1,66.4,57.2,53.4,48.0,69,46,30,29.97,29.70,15,6,15,0.00
2012-6-9,92.7,78.8,66.6,53.6,50.0,44.1,58,39,20,29.73,29.62,20,5,20,0.00
2012-6-10,94.1,76.1,61.2,71.9,56.9,45.5,95,56,29,29.79,29.56,35,6,36,0.00
2012-6-11,72.7,62.9,51.4,63.0,46.8,31.7,97,60,34,30.03,29.67,26,9,26,0.00
2012-6-12,68.2,56.0,45.3,47.5,37.4,30.9,93,54,27,30.18,30.00,16,5,18,0.00
2012-6-13,73.4,62.0,49.1,53.5,46.4,40.8,86,59,37,30.12,29.88,11,4,17,0.00
2012-6-14,76.6,66.5,59.9,66.5,56.2,43.8,97,71,47,29.88,29.76,26,5,35,0.00
2012-6-15,83.3,72.5,63.0,69.9,58.6,47.5,97,67,31,30.03,29.88,10,1,10,0.00
2012-6-16,85.3,70.5,58.6,64.3,54.3,40.0,93,60,33,30.00,29.82,25,4,25,0.00
2012-6-17,80.1,67.2,55.0,66.9,51.4,44.1,96,59,32,29.88,29.44,15,5,17,0.00
2012-6-18,88.9,76.1,64.2,75.3,58.2,47.6,97,62,27,29.67,29.41,16,3,18,0.00
2012-6-19,82.6,70.8,63.1,69.2,61.7,54.2,93,74,61,29.79,29.59,22,4,22,0.39
2012-6-20,77.9,68.3,60.8,67.9,60.1,50.7,95,76,47,29.88,29.62,23,5,25,0.00
2012-6-21,77.9,66.7,57.9,60.8,50.8,42.9,96,61,32,30.00,29.85,17,6,19,0.00
2012-6-22,79.2,67.1,53.4,56.6,48.4,42.0,90,56,28,30.06,29.94,15,2,15,0.00
2012-6-23,82.2,70.2,60.1,61.6,54.7,49.2,76,60,36,29.97,29.88,13,2,15,0.00
2012-6-24,80.1,71.7,64.4,63.4,54.6,44.7,89,58,30,30.12,29.91,15,5,15,0.00
2012-6-25,77.7,67.1,56.5,56.2,47.4,40.9,91,52,31,30.21,30.03,14,4,14,0.00
2012-6-26,79.5,68.6,55.6,53.2,48.2,43.4,84,51,30,30.06,29.73,15,4,17,0.00
2012-6-27,91.8,77.4,64.0,70.2,59.5,50.3,71,55,36,29.79,29.65,11,2,11,0.00
2012-6-28,90.9,75.9,61.9,67.8,49.3,41.1,71,42,21,29.94,29.76,16,4,16,0.00
2012-6-29,92.8,75.3,57.4,62.4,53.7,46.3,85,53,22,29.91,29.79,17,3,17,0.00
2012-6-30,89.2,74.7,59.7,64.8,56.2,47.8,90,58,28,29.91,29.82,8,1,8,0.00
2012-7-1,97.7,79.5,62.6,68.3,62.0,56.5,86,58,27,29.94,29.85,15,2,15,0.00
2012-7-2,99.0,85.8,72.0,72.5,66.8,60.4,91,57,31,29.88,29.70,17,3,17,0.00
2012-7-3,94.6,81.9,68.2,71.8,66.9,55.8,93,62,39,29.85,29.73,29,3,32,0.00
2012-7-4,100.9,87.6,77.4,73.7,68.7,62.6,84,56,30,29.82,29.70,18,4,22,0.00
2012-7-5,86.9,79.2,69.8,67.0,56.4,43.5,73,48,25,30.00,29.82,13,4,17,0.00
2012-7-6,88.9,74.5,67.1,63.6,56.7,49.9,75,55,40,30.09,29.91,20,6,20,0.00
2012-7-7,83.7,72.9,63.1,58.8,53.3,44.9,83,54,27,30.18,30.09,15,5,16,0.00
2012-7-8,93.0,76.1,61.7,61.2,55.4,46.5,84,54,21,30.18,30.09,14,3,15,0.00
2012-7-9,84.6,72.5,61.5,62.7,51.1,42.9,89,52,25,30.18,30.12,16,3,18,0.00
2012-7-10,91.0,73.2,56.8,59.0,51.4,44.6,86,52,22,30.18,30.09,8,1,8,0.00
2012-7-11,90.7,75.4,59.9,60.4,51.7,45.8,86,49,22,30.15,30.03,16,4,17,0.00
2012-7-12,88.9,74.3,61.0,63.3,56.8,51.9,81,56,32,30.03,29.94,15,2,15,0.00
2012-7-13,94.6,75.0,68.4,68.4,63.6,52.2,92,71,28,30.00,29.91,15,2,17,0.00
2012-7-14,93.2,78.4,65.8,71.2,62.2,53.2,94,64,27,30.03,29.97,11,2,12,0.00
2012-7-15,93.9,80.4,66.7,70.3,62.7,55.3,91,60,30,30.06,29.91,11,1,11,0.00
2012-7-16,99.9,85.5,73.4,67.1,60.5,53.9,73,47,26,29.91,29.73,22,7,22,0.00
2012-7-17,86.7,76.7,70.5,70.6,64.3,60.5,86,66,45,29.94,29.76,14,5,16,0.00
2012-7-18,85.1,72.7,67.3,70.8,64.3,61.0,97,76,47,30.00,29.85,16,4,22,0.00
2012-7-19,83.8,74.1,65.8,65.9,62.0,57.2,92,68,42,30.06,29.97,8,2,9,0.00
2012-7-20,89.8,78.5,69.4,68.9,65.7,62.2,91,67,44,30.12,30.00,13,3,15,0.00
2012-7-21,86.2,77.2,68.5,73.4,64.8,56.1,96,68,41,30.09,29.97,16,2,17,0.00
2012-7-22,92.3,80.0,67.5,71.4,65.4,56.6,92,63,39,30.00,29.88,8,2,8,0.00
2012-7-23,93.4,79.1,68.9,71.0,61.9,53.1,88,59,28,30.00,29.88,13,3,13,0.00
2012-7-24,84.9,75.1,68.9,69.2,65.4,61.9,95,73,52,30.00,29.76,15,5,19,0.00
2012-7-25,90.3,78.1,71.6,72.5,66.0,53.8,95,68,40,29.76,29.62,15,3,15,0.00
2012-7-26,83.5,71.2,59.0,59.8,53.3,45.2,92,57,31,29.85,29.70,21,5,22,0.00
2012-7-27,81.1,69.2,61.3,66.0,57.1,48.3,97,69,36,30.09,29.85,12,3,13,0.00
2012-7-28,86.2,72.5,60.4,67.2,58.6,53.0,95,65,36,30.12,30.03,11,2,13,0.00
2012-7-29,87.6,75.6,69.1,70.6,64.0,57.3,95,70,39,30.03,29.94,10,3,10,0.00
2012-7-30,86.5,75.8,66.7,69.1,59.1,49.6,93,61,30,29.97,29.88,14,5,16,0.00
2012-7-31,89.1,73.8,62.4,65.8,59.1,51.1,92,64,31,30.03,29.94,8,1,8,0.00
2012-8-1,94.8,80.5,66.2,65.2,60.8,53.3,82,54,29,29.94,29.79,18,6,18,0.00
2012-8-2,89.8,77.2,64.0,63.5,56.9,48.7,87,53,25,29.91,29.85,11,3,11,0.00
2012-8-3,89.6,75.6,64.6,65.9,59.3,53.7,94,60,31,29.91,29.73,33,4,33,0.00
2012-8-4,79.3,69.6,60.4,67.7,56.1,45.1,98,67,32,30.00,29.73,20,6,20,0.00
2012-8-5,75.7,64.2,54.1,56.5,47.2,38.6,94,59,32,30.21,30.00,18,5,18,0.00
2012-8-6,86.7,70.4,55.0,60.7,54.4,49.0,92,61,29,30.12,29.94,13,4,14,0.00
2012-8-7,82.8,71.8,61.7,64.1,54.3,44.2,92,59,28,30.03,29.94,11,3,13,0.00
2012-8-8,72.3,65.9,59.7,62.4,56.9,52.8,91,73,56,30.03,29.97,15,4,19,0.00
2012-8-9,74.8,66.3,56.8,64.2,53.1,42.8,95,67,33,30.09,30.00,15,4,18,0.00
2012-8-11,80.2,71.2,60.4,56.7,46.3,41.8,80,43,28,30.12,30.00,10,2,11,0.00
2012-8-12,73.6,64.2,57.7,57.1,52.6,47.0,87,68,41,30.03,30.00,9,2,9,0.00
2012-8-13,81.0,66.3,55.9,61.4,50.6,41.9,94,62,30,30.03,29.97,14,3,14,0.00
2012-8-14,81.9,64.6,49.1,57.3,48.0,42.0,90,59,28,30.03,29.88,11,1,11,0.00
2012-8-15,82.9,70.5,58.5,66.9,56.8,49.8,84,63,42,29.88,29.70,17,4,17,0.00
2012-8-16,70.5,61.9,52.0,56.8,43.4,34.9,80,53,33,30.06,29.79,23,8,23,0.00
2012-8-17,74.1,58.1,42.4,44.5,38.5,33.5,80,51,26,30.12,30.03,11,2,11,0.00
2012-8-18,80.4,62.2,46.0,54.3,43.8,35.8,89,57,23,30.03,29.94,17,3,17,0.00
2012-8-19,71.4,61.7,47.8,57.4,44.9,34.4,94,58,28,30.06,30.00,13,3,14,0.00
2012-8-20,75.7,58.7,41.4,50.0,40.1,35.1,87,56,24,30.06,30.00,10,2,10,0.00
2012-8-21,79.9,63.5,46.9,54.3,44.8,40.1,89,56,28,30.06,29.97,14,3,15,0.00
2012-8-22,81.7,65.0,52.7,61.9,52.9,46.2,90,68,35,29.97,29.85,11,2,13,0.00
2012-8-23,83.1,71.9,65.1,66.6,59.7,53.6,87,67,40,29.88,29.76,14,3,15,0.00
2012-8-24,89.8,75.0,59.9,65.0,60.9,57.4,93,65,36,29.85,29.79,13,2,14,0.00
2012-8-25,82.4,71.9,67.8,67.9,61.2,58.0,89,70,47,29.94,29.85,15,6,16,0.00
2012-8-26,84.9,71.7,58.5,65.9,54.4,40.9,92,60,23,30.06,29.94,15,3,16,0.00
2012-8-27,81.9,66.6,52.5,56.2,50.8,46.2,92,61,30,30.15,30.06,10,2,10,0.00
2012-8-28,81.1,69.9,58.1,60.1,55.9,51.5,88,63,40,30.15,30.00,14,4,15,0.00
2012-8-29,87.8,75.1,64.8,62.5,58.8,53.7,88,60,34,30.00,29.76,12,4,13,0.00
2012-8-30,81.3,72.6,62.2,65.5,55.8,47.0,71,56,40,29.97,29.70,13,3,13,0.00
2012-8-31,79.2,66.8,52.5,54.9,46.8,38.5,87,53,25,30.15,29.97,15,4,15,0.00
2012-9-1,80.4,69.3,58.3,51.2,45.4,40.4,68,43,30,30.15,30.03,15,5,16,0.00
2012-9-2,85.5,71.2,56.8,63.5,54.0,43.4,78,56,38,30.03,29.82,14,3,15,0.00
2012-9-3,87.1,72.4,58.8,64.3,51.1,37.9,89,53,20,29.94,29.85,8,1,8,0.00
2012-9-4,86.5,69.7,55.9,58.2,47.1,37.1,77,49,18,29.91,29.76,16,3,19,0.00
2012-9-5,76.6,66.3,52.5,55.8,42.5,34.2,84,45,23,29.91,29.76,17,4,17,0.00
2012-9-6,82.6,62.5,47.8,47.8,41.7,37.9,81,52,22,29.97,29.88,19,3,19,0.00
2012-9-7,66.2,58.3,47.3,38.9,36.8,34.9,72,46,34,30.06,30.00,20,6,20,0.00
2012-9-8,73.6,57.6,42.8,47.9,39.4,35.0,88,55,26,30.09,29.85,24,6,28,0.00
2012-9-9,71.6,58.5,46.4,51.6,43.3,36.7,90,62,32,30.21,30.06,10,3,11,0.00
2012-9-10,80.1,65.5,50.4,47.4,43.1,39.5,83,48,26,30.06,29.76,26,6,26,0.00
2012-9-11,92.3,73.2,60.1,50.2,45.0,35.6,66,39,19,29.88,29.67,21,6,26,0.00
2012-9-12,70.7,60.2,52.9,48.1,41.4,29.3,76,53,23,30.24,29.91,14,4,15,0.00
2012-9-13,72.3,56.6,40.1,44.7,31.3,17.6,87,47,14,30.32,30.24,20,3,20,0.00
2012-9-14,69.8,57.5,41.9,38.9,33.6,29.1,72,42,25,30.35,30.24,12,3,13,0.00
2012-9-15,78.4,62.7,47.5,45.1,37.9,30.0,68,42,25,30.24,29.91,13,4,14,0.00
2012-9-16,77.0,65.4,55.0,49.2,39.8,32.3,71,41,25,30.00,29.85,15,7,18,0.00
2012-9-17,62.6,52.4,37.9,38.3,31.8,25.2,76,47,26,30.03,29.97,23,6,23,0.00
2012-9-18,61.9,48.2,34.5,37.0,29.5,24.8,84,53,27,30.06,29.85,13,2,13,0.00
2012-9-19,71.4,56.9,47.3,41.3,32.8,25.7,67,41,25,29.85,29.62,27,8,30,0.00
2012-9-20,65.3,54.4,44.4,39.5,29.6,25.4,67,40,25,29.91,29.82,21,7,23,0.00
2012-9-21,63.0,50.6,38.7,46.9,35.4,18.6,87,61,26,29.94,29.79,34,5,34,0.00
2012-9-22,55.9,45.7,34.7,33.8,25.3,18.7,67,46,28,30.24,29.94,20,7,22,0.00
2012-9-23,59.4,42.5,28.4,30.6,22.4,17.8,79,48,26,30.29,30.12,20,3,20,0.00
2012-9-24,75.4,52.5,30.4,40.2,28.1,19.4,72,43,21,30.12,29.70,23,6,23,0.00
2012-9-25,64.0,50.3,37.9,37.1,30.8,22.9,82,50,26,30.00,29.82,10,2,11,0.00
2012-9-26,59.4,45.4,33.8,38.8,29.9,23.7,89,58,31,30.21,30.00,11,2,13,0.00
2012-9-27,65.7,46.6,29.5,40.2,30.3,23.3,87,57,27,30.27,30.18,8,0,8,0.00
2012-9-28,75.6,54.0,35.2,43.9,32.9,25.8,84,51,21,30.21,30.06,13,2,13,0.00
2012-9-29,78.6,58.4,40.8,42.2,36.3,31.7,81,48,21,30.12,30.00,8,1,9,0.00
2012-9-30,75.7,57.4,41.0,41.6,36.3,31.4,76,48,26,30.03,29.85,8,0,8,0.00
2012-10-1,69.1,58.1,40.3,40.2,33.9,23.4,62,42,26,30.00,29.85,19,5,20,0.00
2012-10-2,68.9,49.9,30.6,40.0,30.0,24.7,83,51,25,30.00,29.82,14,2,17,0.00
2012-10-3,73.8,55.8,38.3,38.7,33.4,30.4,77,47,22,29.91,29.79,13,2,13,0.00
2012-10-4,60.3,47.6,40.1,37.3,28.8,21.9,70,49,36,30.09,29.67,32,13,32,0.00
2012-10-8,40.3,39.5,38.1,29.4,28.5,27.5,69,64,60,29.73,29.70,6,4,6,0.00
2012-10-9,48.6,40.9,33.6,32.4,23.9,17.1,78,52,37,29.97,29.70,25,8,28,0.00
2012-10-10,52.5,39.8,24.3,25.7,20.8,17.0,77,49,29,30.06,29.82,17,5,18,0.00
2012-10-11,49.3,39.8,26.4,31.8,19.5,8.9,74,46,29,30.38,29.82,19,6,21,0.00
2012-10-12,50.5,36.4,18.0,25.0,15.8,8.7,75,46,27,30.41,29.97,15,3,15,0.00
2012-10-13,59.4,50.4,38.7,43.8,35.9,17.8,84,59,29,29.97,29.67,15,2,15,0.00
2012-10-14,57.7,47.4,37.4,42.7,33.7,24.8,94,63,36,29.91,29.76,17,5,19,0.00
2012-10-15,63.5,46.7,27.7,36.6,29.6,21.5,86,54,34,29.94,29.67,9,2,15,0.00
2012-10-16,67.8,58.5,51.3,42.0,36.9,31.8,69,45,33,29.67,29.38,13,2,13,0.00
2012-10-17,64.0,52.2,45.5,47.1,41.5,36.2,86,68,42,29.38,29.08,25,7,27,0.00
2012-10-18,53.4,47.4,44.6,43.8,40.5,37.7,87,77,56,29.41,29.17,10,2,11,0.00
2012-10-19,56.7,49.9,46.0,52.1,44.6,35.3,95,83,51,29.73,29.41,11,2,11,0.00
2012-10-20,55.6,48.4,45.0,45.5,41.3,36.7,93,77,53,29.79,29.73,10,2,10,0.00
2012-10-21,65.5,51.5,43.3,48.4,40.3,36.3,94,69,36,29.91,29.76,18,4,19,0.00
2012-10-22,56.3,51.7,47.3,45.3,41.0,37.6,86,67,51,30.00,29.88,17,8,20,0.00
2012-10-23,60.6,56.1,50.7,59.2,52.2,39.4,95,87,65,29.88,29.67,16,6,17,0.00
2012-10-24,60.3,51.9,42.6,58.8,47.3,34.5,96,85,64,29.88,29.79,18,6,18,0.00
2012-10-25,42.8,37.2,34.2,39.5,28.9,17.5,98,74,46,30.12,29.79,18,8,21,0.00
2012-10-26,40.3,35.2,31.6,20.3,17.0,14.1,58,47,39,30.32,30.12,20,8,25,0.00
2012-10-27,43.3,32.0,22.8,25.4,17.2,12.3,79,56,34,30.32,30.24,13,3,13,0.00
2012-10-28,45.1,36.9,30.2,29.0,21.6,18.3,71,54,42,30.29,30.24,13,4,13,0.00
2012-10-29,47.1,37.9,31.3,23.5,20.3,17.3,60,49,38,30.27,30.24,13,6,14,0.00
2012-10-30,47.7,37.1,27.3,28.0,22.5,16.1,76,56,41,30.24,30.09,13,4,15,0.00
2012-10-31,49.1,35.0,21.2,25.9,21.2,16.5,84,60,35,30.09,29.91,8,1,8,0.00
2012-11-1,42.1,36.9,27.3,30.0,20.1,13.0,66,51,38,30.06,29.91,17,6,17,0.00
2012-11-2,38.8,31.5,21.7,24.9,18.2,13.8,84,59,43,30.15,30.06,10,2,10,0.00
2012-11-3,41.4,36.6,32.9,24.1,20.9,17.2,59,53,48,30.21,30.15,9,2,9,0.00
2012-11-4,45.5,37.9,28.9,25.2,22.4,18.1,70,54,43,30.21,30.15,13,4,13,0.00
2012-11-5,41.0,36.5,33.6,38.6,30.4,21.2,91,78,54,30.18,29.88,14,5,14,0.00
2012-11-6,43.0,39.2,35.2,40.0,31.3,25.9,96,74,52,29.97,29.73,22,8,23,0.00
2012-11-7,49.6,40.8,36.7,32.7,28.4,24.0,78,62,39,30.09,29.97,11,3,11,0.00
2012-11-8,51.4,40.6,33.6,32.8,28.6,25.0,81,63,41,30.03,29.91,13,6,13,0.00
2012-11-9,45.5,40.2,31.8,38.2,32.1,27.0,96,73,59,30.06,29.91,18,10,20,0.00
2012-11-10,52.2,46.6,40.8,51.6,44.1,32.7,98,91,72,29.91,29.44,24,9,24,0.00
2012-11-11,52.3,29.3,18.3,51.8,18.6,3.5,98,65,49,29.88,29.47,23,10,26,0.00
2012-11-12,26.2,20.5,14.5,11.6,7.5,4.4,71,57,45,30.24,29.88,23,8,26,0.00
2012-11-13,43.3,28.1,12.0,21.9,14.6,5.0,80,59,37,30.29,30.21,11,3,12,0.00
2012-11-14,50.5,37.1,27.1,29.1,23.0,19.8,80,58,37,30.24,30.09,13,3,13,0.00
2012-11-15,45.0,32.9,20.1,31.2,16.3,0.9,86,53,29,30.44,30.09,16,4,17,0.00
2012-11-16,41.2,26.7,12.9,16.9,9.7,2.4,77,49,32,30.47,30.24,11,4,13,0.00
2012-11-17,55.9,43.4,29.7,29.9,26.8,16.7,79,54,36,30.27,30.12,15,6,20,0.00
2012-11-18,55.0,47.2,39.7,29.1,26.7,24.5,56,45,37,30.12,30.00,15,7,15,0.00
2012-11-19,57.2,45.7,36.9,32.7,29.4,26.1,78,54,38,30.09,30.00,11,4,11,0.00
2012-11-20,44.4,34.6,25.3,30.9,27.9,21.8,90,77,56,30.18,29.97,9,2,9,0.00
2012-11-21,54.5,43.2,32.5,35.6,30.1,24.7,79,61,44,29.97,29.62,13,4,13,0.00
2012-11-22,53.4,37.6,19.8,35.4,26.2,10.4,84,64,48,30.00,29.56,24,9,28,0.00
2012-11-23,24.6,19.0,14.2,11.4,5.3,1.8,73,55,44,30.35,30.00,27,11,28,0.00
2012-11-25,30.2,27.1,21.0,16.7,11.8,3.5,61,52,43,30.09,29.94,22,8,22,0.00
2012-11-26,19.0,13.9,9.1,3.4,-1.8,-6.1,61,49,44,30.38,30.27,11,4,12,0.00
2012-11-27,37.4,24.2,12.7,17.9,10.4,-0.4,64,55,44,30.27,30.06,16,5,17,0.00
2012-11-28,36.5,29.1,23.2,19.8,15.7,10.6,67,57,46,30.29,30.03,15,4,15,0.00
2012-11-29,33.8,27.8,20.1,22.9,18.8,12.7,87,69,57,30.12,30.03,15,6,17,0.00
2012-11-30,35.1,31.0,26.8,29.0,23.1,17.8,83,72,60,30.18,30.00,14,7,15,0.00
2012-12-1,44.4,36.7,31.3,36.9,31.3,25.2,94,81,66,30.00,29.70,13,4,15,0.00
2012-12-2,39.6,35.6,29.1,37.3,32.2,26.0,94,88,75,29.97,29.70,16,4,16,0.00
2012-12-3,53.1,44.9,36.3,50.9,35.4,19.7,98,72,48,29.88,29.53,22,8,26,0.00
2012-12-4,37.6,23.5,12.0,19.7,6.8,-0.3,68,49,40,30.38,29.88,17,6,18,0.00
2012-12-5,39.7,26.4,13.1,19.1,10.4,2.2,72,52,40,30.38,29.79,24,8,24,0.00
2012-12-6,42.8,34.0,20.1,29.7,19.8,11.3,77,56,43,29.97,29.70,20,6,20,0.00
2012-12-7,29.5,24.4,17.1,20.0,16.1,10.5,77,71,55,30.06,29.97,8,2,8,0.00
2012-12-8,33.1,27.0,22.8,24.2,17.6,13.2,81,68,54,30.03,29.97,13,3,13,0.00
2012-12-9,32.2,26.0,9.0,31.0,22.1,0.2,96,85,67,30.00,29.88,18,8,22,0.00
2012-12-10,12.0,4.8,-2.9,3.2,-3.7,-11.1,67,67,67,29.97,29.79,15,4,16,0.00
2012-12-11,19.2,6.2,-5.1,4.9,-5.1,-17.1,67,59,49,29.97,29.76,12,3,13,0.00
2012-12-12,38.1,21.7,-4.4,22.1,10.3,-16.4,79,62,44,29.97,29.79,10,3,12,0.00
2012-12-13,32.0,22.7,8.6,19.8,14.2,0.7,85,70,53,30.12,29.88,10,2,10,0.00
2012-12-14,32.4,19.7,5.7,22.3,11.0,-2.1,81,69,53,30.12,29.76,15,4,15,0.00
2012-12-15,37.6,35.3,32.2,36.6,31.3,22.1,97,86,65,29.76,29.50,11,4,11,0.00
2012-12-16,35.8,23.2,18.1,34.8,17.0,8.7,97,77,61,29.79,29.59,15,6,15,0.00
2012-12-17,24.8,22.3,20.7,19.4,16.8,12.6,88,79,64,29.79,29.67,8,2,8,0.00
2012-12-18,28.6,24.2,21.9,21.5,17.8,13.1,86,77,58,29.79,29.65,6,2,8,0.00
2012-12-19,35.1,24.7,18.0,23.0,15.3,7.9,85,68,49,30.03,29.79,10,2,11,0.00
2012-12-20,24.4,18.4,8.2,15.1,8.1,-2.1,76,64,52,30.09,29.94,26,8,26,0.00
2012-12-21,16.0,6.6,0.3,3.2,-5.8,-11.6,62,56,48,30.27,30.09,10,3,10,0.00
2012-12-22,21.9,12.6,4.3,10.4,-1.3,-10.6,73,53,45,30.15,29.97,16,3,16,0.00
2012-12-23,20.3,13.0,7.0,4.6,0.5,-3.3,62,57,45,30.15,30.03,15,5,15,0.00
2012-12-24,14.9,9.2,-1.3,3.2,-2.6,-12.5,61,58,56,30.29,30.00,15,6,17,0.00
2012-12-25,6.8,-2.0,-9.4,-4.8,-13.2,-20.3,58,58,58,30.44,30.29,11,4,11,0.00
2012-12-26,13.6,4.8,-2.2,1.5,-6.7,-13.3,58,58,58,30.38,30.21,7,1,8,0.00
2012-12-27,21.7,12.2,0.1,11.4,1.6,-11.3,78,62,46,30.24,30.12,7,1,8,0.00
2012-12-28,25.9,17.3,8.6,11.9,8.0,-0.4,75,66,52,30.12,30.00,8,1,8,0.00
2012-12-29,18.3,9.7,-2.6,9.9,-1.8,-15.8,73,59,48,30.12,30.00,11,4,12,0.00
2012-12-30,19.2,6.2,-4.9,6.4,-6.3,-18.0,71,55,49,30.15,29.88,14,2,14,0.00
2012-12-31,16.0,8.1,-1.7,6.6,-3.8,-13.3,69,58,57,30.21,29.97,17,7,17,0.00